DW9346 Weather Reports


Display with metric or nautical units.
time (UTC)temp
F
wind
direction
speed
MPH
gust
MPH
rain 1hr
in
rain 24hr
in
rain mn
in
humidity
%
barometer
mb
20190419002704 61 273 1.0 6.0 0.00 0.04 0.04 82 1018.4
20190419002205 61 284 1.0 6.0 0.00 0.04 0.04 80 1018.5
20190419001704 62 273 0.0 5.0 0.00 0.04 0.04 80 1018.4
20190419001204 62 269 0.0 5.0 0.00 0.04 0.04 79 1018.5
20190419000704 62 271 1.0 6.0 0.00 0.04 0.04 79 1018.6
20190419000203 62 216 1.0 6.0 0.00 0.04 0.04 79 1018.6
20190418235704 62 266 1.0 3.0 0.00 0.04 0.04 80 1018.8
20190418235204 62 268 0.0 5.0 0.00 0.04 0.04 79 1018.7
20190418234704 61 150 1.0 5.0 0.00 0.04 0.04 80 1018.7
20190418234204 61 297 0.0 2.0 0.00 0.04 0.04 81 1018.7
20190418233704 60 76 0.0 3.0 0.00 0.04 0.04 82 1018.7
20190418233204 60 76 0.0 3.0 0.00 0.04 0.04 82 1018.8
20190418232704 59 76 1.0 3.0 0.00 0.04 0.04 81 1018.9
20190418232205 59 76 1.0 3.0 0.00 0.04 0.04 81 1018.9
20190418231704 59 76 0.0 3.0 0.00 0.04 0.04 80 1019.0
20190418231204 59 150 0.0 0.0 0.00 0.04 0.04 82 1019.2
20190418230704 58 84 0.0 0.0 0.00 0.04 0.04 81 1019.2
20190418230204 59 84 0.0 0.0 0.00 0.04 0.04 80 1019.4
20190418225704 59 84 0.0 0.0 0.00 0.04 0.04 80 1019.4
20190418225204 58 63 0.0 0.0 0.00 0.04 0.04 82 1019.5
20190418224704 58 63 0.0 0.0 0.00 0.04 0.04 81 1019.6
20190418224203 58 63 0.0 0.0 0.00 0.04 0.04 81 1019.6
20190418223704 58 63 0.0 0.0 0.00 0.04 0.04 83 1019.7
20190418223204 58 63 0.0 0.0 0.00 0.04 0.04 83 1019.9
20190418222704 58 63 0.0 0.0 0.00 0.04 0.04 84 1020.0
20190418222204 57 63 0.0 0.0 0.00 0.04 0.04 84 1020.0
20190418221704 57 63 0.0 0.0 0.00 0.04 0.04 83 1020.1
20190418221203 57 63 0.0 0.0 0.00 0.04 0.04 84 1020.2
20190418220704 57 63 0.0 0.0 0.00 0.04 0.04 86 1020.3
20190418220203 56 63 0.0 0.0 0.00 0.04 0.04 84 1020.4
20190418215704 57 63 0.0 0.0 0.00 0.04 0.04 85 1020.4
20190418215204 57 63 0.0 0.0 0.00 0.04 0.04 85 1020.5
20190418214703 56 63 0.0 0.0 0.00 0.04 0.04 85 1020.7
20190418214204 56 158 0.0 0.0 0.00 0.04 0.04 83 1020.6
20190418213704 56 158 0.0 0.0 0.00 0.04 0.04 85 1020.6
20190418213203 56 158 0.0 0.0 0.00 0.04 0.04 84 1020.7
20190418212704 56 158 0.0 0.0 0.00 0.04 0.04 85 1020.9
20190418212204 56 158 0.0 0.0 0.00 0.04 0.04 86 1020.9
20190418211704 56 158 0.0 0.0 0.00 0.04 0.04 86 1021.0
20190418211204 56 158 0.0 0.0 0.00 0.04 0.04 86 1021.1
20190418210704 56 158 0.0 0.0 0.00 0.04 0.04 86 1021.2
20190418210205 56 158 0.0 0.0 0.00 0.04 0.04 86 1021.0
20190418205704 56 158 0.0 0.0 0.00 0.04 0.04 86 1021.1
20190418205204 55 158 0.0 3.0 0.00 0.04 0.04 86 1021.2
20190418204704 55 158 1.0 3.0 0.00 0.04 0.04 87 1021.4
20190418204204 55 158 1.0 3.0 0.00 0.04 0.04 86 1021.4
20190418203703 55 158 1.0 3.0 0.00 0.04 0.04 87 1021.6
20190418203204 55 158 1.0 2.0 0.00 0.04 0.04 87 1021.6
20190418202704 55 158 0.0 2.0 0.00 0.04 0.04 87 1021.7
20190418202204 55 158 0.0 2.0 0.00 0.04 0.04 87 1021.8
20190418201704 55 158 0.0 3.0 0.00 0.04 0.04 87 1021.8
20190418201204 55 158 0.0 3.0 0.00 0.04 0.04 88 1021.9
20190418200704 54 158 0.0 3.0 0.00 0.04 0.04 88 1022.0
20190418200204 54 158 0.0 2.0 0.00 0.04 0.04 88 1022.0
20190418195703 54 158 0.0 3.0 0.00 0.04 0.04 90 1022.1
20190418195204 54 158 0.0 3.0 0.00 0.04 0.04 89 1022.2
20190418194704 54 158 1.0 2.0 0.00 0.04 0.04 89 1022.2
20190418194204 54 162 0.0 1.0 0.00 0.04 0.04 89 1022.1
20190418193704 54 162 0.0 3.0 0.00 0.04 0.04 91 1022.2
20190418193204 53 162 0.0 4.0 0.00 0.04 0.04 90 1022.5
20190418192704 53 162 1.0 4.0 0.00 0.04 0.04 90 1022.6
20190418192204 53 172 1.0 3.0 0.00 0.04 0.04 89 1022.6
20190418191704 53 174 0.0 2.0 0.00 0.04 0.04 90 1022.6
20190418191205 53 174 0.0 3.0 0.00 0.04 0.04 90 1022.5
20190418190704 53 174 0.0 3.0 0.00 0.04 0.04 90 1022.6
20190418190204 53 174 0.0 1.0 0.00 0.04 0.04 90 1022.7
20190418185704 53 174 0.0 2.0 0.00 0.04 0.04 90 1022.6
20190418185205 53 174 0.0 2.0 0.00 0.04 0.04 92 1022.7
20190418184704 53 174 0.0 2.0 0.00 0.04 0.04 92 1022.8
20190418184204 53 174 0.0 2.0 0.00 0.04 0.04 92 1022.7
20190418183704 53 174 0.0 2.0 0.00 0.04 0.04 92 1022.9
20190418183204 52 174 0.0 1.0 0.00 0.04 0.04 92 1022.9
20190418182704 52 174 0.0 2.0 0.00 0.04 0.04 93 1023.0
20190418182205 52 174 0.0 2.0 0.00 0.04 0.04 92 1023.0
20190418181704 52 174 0.0 2.0 0.00 0.04 0.04 92 1023.0
20190418181204 52 174 0.0 2.0 0.00 0.04 0.04 91 1022.9
20190418180704 52 174 0.0 0.0 0.00 0.04 0.04 92 1022.8
20190418180204 52 174 0.0 0.0 0.00 0.04 0.04 92 1022.9
20190418175704 52 174 0.0 0.0 0.00 0.04 0.04 92 1022.9
20190418175204 52 174 0.0 0.0 0.00 0.04 0.04 92 1022.8
20190418174704 52 174 0.0 0.0 0.00 0.04 0.04 92 1022.8
20190418174204 52 174 0.0 1.0 0.00 0.04 0.04 92 1022.9
20190418173703 52 174 0.0 3.0 0.00 0.04 0.04 92 1023.0
20190418173204 52 174 0.0 3.0 0.00 0.04 0.04 93 1023.0
20190418172704 52 174 0.0 2.0 0.00 0.04 0.04 93 1023.0
20190418172204 51 174 0.0 3.0 0.00 0.04 0.04 94 1023.1
20190418171704 51 174 0.0 4.0 0.00 0.04 0.04 94 1023.1
20190418171204 51 174 1.0 4.0 0.00 0.04 0.04 94 1023.1
20190418170703 51 175 2.0 4.0 0.01 0.04 0.04 94 1023.2
20190418170204 51 160 1.0 6.0 0.01 0.04 0.04 94 1023.3
20190418165703 51 157 2.0 6.0 0.01 0.04 0.04 94 1023.3
20190418165204 51 154 2.0 6.0 0.01 0.04 0.04 94 1023.3
20190418164704 51 146 2.0 4.0 0.01 0.04 0.04 94 1023.3
20190418164204 51 196 2.0 3.0 0.01 0.04 0.04 94 1023.2
20190418163703 51 181 1.0 3.0 0.01 0.04 0.04 94 1023.1
20190418163204 51 193 1.0 4.0 0.01 0.04 0.04 94 1023.1
20190418162704 51 155 1.0 4.0 0.01 0.04 0.04 94 1023.0
20190418162204 51 164 2.0 4.0 0.01 0.04 0.04 94 1023.1
20190418161704 51 157 2.0 4.0 0.01 0.04 0.04 95 1023.2
20190418161204 51 142 1.0 4.0 0.01 0.04 0.04 95 1023.2
20190418160703 51 134 1.0 3.0 0.00 0.03 0.03 96 1023.3
20190418160205 51 179 0.0 2.0 0.00 0.03 0.03 96 1023.2
20190418155704 51 201 0.0 2.0 0.00 0.03 0.03 96 1023.2
20190418155204 51 205 1.0 4.0 0.00 0.03 0.03 96 1023.3
20190418154704 51 205 1.0 4.0 0.00 0.03 0.03 96 1023.2
20190418154204 51 150 1.0 4.0 0.00 0.03 0.03 97 1023.1
20190418153704 50 162 0.0 2.0 0.00 0.03 0.03 97 1023.2
20190418153205 50 188 0.0 3.0 0.00 0.03 0.03 97 1023.1
20190418152703 50 198 0.0 3.0 0.00 0.03 0.03 97 1023.2
20190418152204 50 198 1.0 3.0 0.00 0.03 0.03 96 1023.2
20190418151704 50 184 1.0 3.0 0.00 0.03 0.03 97 1023.3
20190418151205 50 190 1.0 4.0 0.00 0.03 0.03 97 1023.2
20190418150704 50 200 1.0 4.0 0.01 0.03 0.03 97 1023.3
20190418150205 50 200 1.0 4.0 0.01 0.03 0.03 97 1023.2
20190418145704 50 167 1.0 3.0 0.01 0.03 0.03 97 1023.3
20190418145204 50 148 0.0 2.0 0.03 0.03 0.03 97 1023.3
20190418144704 50 183 1.0 3.0 0.03 0.03 0.03 97 1023.3
20190418144204 50 182 1.0 3.0 0.03 0.03 0.03 96 1023.2
20190418143704 50 197 1.0 3.0 0.03 0.03 0.03 96 1023.2
20190418143204 51 208 1.0 3.0 0.03 0.03 0.03 96 1023.2
20190418142704 51 161 0.0 2.0 0.03 0.03 0.03 97 1023.2
20190418142204 50 201 0.0 2.0 0.03 0.03 0.03 97 1023.1
20190418141704 50 201 0.0 2.0 0.03 0.03 0.03 96 1023.1
20190418141204 50 201 0.0 0.0 0.03 0.03 0.03 96 1023.1
20190418140704 50 201 0.0 0.0 0.02 0.02 0.02 96 1023.0
20190418140204 51 201 0.0 0.0 0.02 0.02 0.02 95 1022.8
20190418135703 51 201 0.0 0.0 0.02 0.02 0.02 95 1022.8
20190418135204 51 201 0.0 0.0 0.00 0.00 0.00 95 1023.0
20190418134704 51 201 0.0 0.0 0.00 0.00 0.00 95 1023.1
20190418134205 51 201 0.0 0.0 0.00 0.00 0.00 95 1023.1
20190418133704 51 201 0.0 0.0 0.00 0.00 0.00 95 1023.1
20190418133203 51 201 0.0 0.0 0.00 0.00 0.00 95 1023.3
20190418132704 51 201 0.0 0.0 0.00 0.00 0.00 95 1023.4
20190418132204 51 201 0.0 0.0 0.00 0.00 0.00 95 1023.4
20190418131705 51 201 0.0 0.0 0.00 0.00 0.00 95 1023.4
20190418131204 51 201 0.0 0.0 0.00 0.00 0.00 95 1023.3
20190418130704 51 201 0.0 0.0 0.00 0.00 0.00 95 1023.3
20190418130204 51 201 0.0 0.0 0.00 0.00 0.00 95 1023.2
20190418125704 51 201 0.0 0.0 0.00 0.00 0.00 95 1023.3
20190418125204 51 201 0.0 0.0 0.00 0.00 0.00 95 1023.4
20190418124704 51 201 0.0 0.0 0.00 0.00 0.00 95 1023.3
20190418124204 51 201 0.0 0.0 0.00 0.00 0.00 95 1023.3
20190418123704 51 201 0.0 0.0 0.00 0.00 0.00 95 1023.2
20190418123204 51 201 0.0 0.0 0.00 0.00 0.00 95 1023.3
20190418122703 51 201 0.0 0.0 0.00 0.00 0.00 94 1023.3
20190418122204 51 201 0.0 0.0 0.00 0.00 0.00 94 1023.3
20190418121704 51 201 0.0 0.0 0.00 0.00 0.00 94 1023.3
20190418121203 51 201 0.0 0.0 0.00 0.00 0.00 95 1023.4
20190418120704 51 201 0.0 0.0 0.00 0.00 0.00 95 1023.4
20190418120204 51 201 0.0 0.0 0.00 0.00 0.00 94 1023.4
20190418115704 51 201 0.0 0.0 0.00 0.00 0.00 94 1023.4
20190418115204 51 201 0.0 0.0 0.00 0.00 0.00 94 1023.4
20190418114705 51 201 0.0 0.0 0.00 0.00 0.00 94 1023.5
20190418114204 51 201 0.0 0.0 0.00 0.00 0.00 94 1023.6
20190418113704 51 201 0.0 0.0 0.00 0.00 0.00 94 1023.7
20190418113204 51 201 0.0 0.0 0.00 0.00 0.00 94 1023.5
20190418112703 51 201 0.0 0.0 0.00 0.00 0.00 94 1023.6
20190418112204 51 201 0.0 0.0 0.00 0.00 0.00 94 1023.7
20190418111704 51 201 0.0 0.0 0.00 0.00 0.00 94 1023.7
20190418111204 51 201 0.0 0.0 0.00 0.00 0.00 94 1023.7
20190418110704 51 201 0.0 0.0 0.00 0.00 0.00 94 1023.8
20190418110204 51 201 0.0 0.0 0.00 0.00 0.00 94 1023.7
20190418105704 51 201 0.0 0.0 0.00 0.00 0.00 94 1023.8
20190418105204 51 201 0.0 0.0 0.00 0.00 0.00 94 1023.8
20190418104704 51 201 0.0 0.0 0.00 0.00 0.00 94 1023.8
20190418104204 51 201 0.0 0.0 0.00 0.00 0.00 94 1023.8
20190418103704 51 201 0.0 0.0 0.00 0.00 0.00 94 1023.9
20190418103204 51 201 0.0 0.0 0.00 0.00 0.00 94 1023.9
20190418102704 51 201 0.0 0.0 0.00 0.00 0.00 94 1024.0
20190418102204 51 201 0.0 0.0 0.00 0.00 0.00 94 1024.0
20190418101704 51 201 0.0 0.0 0.00 0.00 0.00 94 1024.0
20190418101204 51 201 0.0 0.0 0.00 0.00 0.00 94 1024.0
20190418100704 51 201 0.0 0.0 0.00 0.00 0.00 94 1024.1
20190418100204 51 201 0.0 0.0 0.00 0.00 0.00 94 1024.2
20190418095703 51 201 0.0 2.0 0.00 0.00 0.00 94 1024.2
20190418095204 51 201 0.0 2.0 0.00 0.00 0.00 94 1024.3
20190418094704 51 201 1.0 3.0 0.00 0.00 0.00 94 1024.2
20190418094205 51 201 1.0 3.0 0.00 0.00 0.00 94 1024.3
20190418093704 51 201 1.0 3.0 0.00 0.00 0.00 94 1024.3
20190418093204 51 201 1.0 3.0 0.00 0.00 0.00 94 1024.5
20190418092704 51 194 1.0 4.0 0.00 0.00 0.00 94 1024.5
20190418092205 51 257 1.0 4.0 0.00 0.00 0.00 93 1024.6
20190418091704 51 208 2.0 4.0 0.00 0.00 0.00 93 1024.5
20190418091204 51 202 1.0 3.0 0.00 0.00 0.00 94 1024.6
20190418090704 51 229 0.0 2.0 0.00 0.00 0.00 94 1024.7
20190418090204 51 206 0.0 2.0 0.00 0.00 0.00 94 1024.7
20190418085703 51 205 0.0 3.0 0.00 0.00 0.00 93 1024.7
20190418085204 51 205 1.0 3.0 0.00 0.00 0.00 93 1024.7
20190418084703 51 198 1.0 3.0 0.00 0.00 0.00 93 1024.8
20190418084204 51 201 1.0 3.0 0.00 0.00 0.00 93 1024.9
20190418083703 51 193 1.0 3.0 0.00 0.00 0.00 92 1024.9
20190418083204 51 150 1.0 4.0 0.00 0.00 0.00 92 1024.9
20190418082704 51 210 1.0 4.0 0.00 0.00 0.00 92 1025.0
20190418082204 51 161 2.0 5.0 0.00 0.00 0.00 92 1025.0
20190418081704 51 162 3.0 5.0 0.00 0.00 0.00 91 1025.1
20190418081204 52 191 2.0 6.0 0.00 0.00 0.00 90 1025.1
20190418080703 52 184 2.0 6.0 0.00 0.00 0.00 90 1025.2
20190418080204 52 284 2.0 6.0 0.00 0.00 0.00 89 1025.2
20190418075704 52 188 2.0 4.0 0.00 0.00 0.00 88 1025.2
20190418075204 52 151 2.0 4.0 0.00 0.00 0.00 88 1025.2
20190418074704 52 167 1.0 4.0 0.00 0.00 0.00 89 1025.2
20190418074204 52 187 1.0 3.0 0.00 0.00 0.00 88 1025.2
20190418073704 52 188 0.0 0.0 0.00 0.00 0.00 89 1025.2
20190418073204 53 229 0.0 0.0 0.00 0.00 0.00 88 1025.2
20190418072704 53 229 0.0 0.0 0.00 0.00 0.00 88 1025.2
20190418072204 53 229 0.0 0.0 0.00 0.00 0.00 87 1025.2
20190418071704 53 229 0.0 0.0 0.00 0.00 0.00 87 1025.3
20190418071204 53 229 0.0 0.0 0.00 0.00 0.00 87 1025.3
20190418070704 53 229 0.0 0.0 0.00 0.00 0.00 88 1025.3
20190418070204 53 229 0.0 2.0 0.00 0.00 0.00 88 1025.3
20190418065704 53 229 0.0 2.0 0.00 0.00 0.00 88 1025.4
20190418065204 53 229 0.0 2.0 0.00 0.00 0.00 88 1025.5
20190418064704 53 229 0.0 2.0 0.00 0.00 0.00 88 1025.4
20190418064204 53 204 0.0 2.0 0.00 0.00 0.00 87 1025.4
20190418063704 53 204 0.0 1.0 0.00 0.00 0.00 87 1025.4
20190418063204 53 269 0.0 0.0 0.00 0.00 0.00 86 1025.3
20190418062704 53 269 0.0 0.0 0.00 0.00 0.00 86 1025.4
20190418062204 53 269 0.0 0.0 0.00 0.00 0.00 86 1025.4
20190418061704 53 269 0.0 0.0 0.00 0.00 0.00 86 1025.5
20190418061204 53 269 0.0 0.0 0.00 0.00 0.00 86 1025.4
20190418060704 53 269 0.0 0.0 0.00 0.00 0.00 86 1025.4
20190418060204 53 269 0.0 1.0 0.00 0.00 0.00 86 1025.4
20190418055703 53 269 0.0 4.0 0.00 0.00 0.00 85 1025.3
20190418055204 53 269 0.0 5.0 0.00 0.00 0.00 85 1025.4
20190418054704 53 269 1.0 5.0 0.00 0.00 0.00 86 1025.4
20190418054205 53 277 0.0 2.0 0.00 0.00 0.00 85 1025.5
20190418053704 53 274 0.0 2.0 0.00 0.00 0.00 85 1025.5
20190418053204 53 274 0.0 1.0 0.00 0.00 0.00 85 1025.6
20190418052704 53 294 0.0 0.0 0.00 0.00 0.00 85 1025.6
20190418052204 54 294 0.0 0.0 0.00 0.00 0.00 84 1025.6
20190418051704 54 294 0.0 0.0 0.00 0.00 0.00 84 1025.6
20190418051204 54 294 0.0 0.0 0.00 0.00 0.00 84 1025.6
20190418050704 54 294 0.0 1.0 0.00 0.00 0.00 84 1025.5
20190418050204 54 294 0.0 1.0 0.00 0.00 0.00 84 1025.5
20190418045704 54 277 0.0 1.0 0.00 0.00 0.00 84 1025.5
20190418045204 54 277 0.0 3.0 0.00 0.00 0.00 84 1025.5
20190418044704 54 277 0.0 3.0 0.00 0.00 0.00 85 1025.4
20190418044204 54 277 0.0 3.0 0.00 0.00 0.00 84 1025.4
20190418043704 54 17 0.0 3.0 0.00 0.00 0.00 84 1025.4
20190418043204 54 17 0.0 7.0 0.00 0.00 0.00 84 1025.3
20190418042703 54 355 0.0 7.0 0.00 0.00 0.00 84 1025.3
20190418042204 54 263 1.0 7.0 0.00 0.00 0.00 84 1025.2
20190418041704 54 285 1.0 4.0 0.00 0.00 0.00 84 1025.1
20190418041204 54 284 1.0 6.0 0.00 0.00 0.00 84 1025.0
20190418040704 55 271 2.0 6.0 0.00 0.00 0.00 84 1025.0
20190418040205 55 267 2.0 6.0 0.00 0.00 0.00 83 1024.9
20190418035704 55 284 1.0 4.0 0.00 0.00 0.00 84 1024.9
20190418035204 55 277 1.0 4.0 0.00 0.00 0.00 84 1024.9
20190418034704 55 263 1.0 5.0 0.00 0.00 0.00 83 1024.9
20190418034204 55 257 2.0 5.0 0.00 0.00 0.00 83 1024.9
20190418033704 55 282 2.0 5.0 0.00 0.00 0.00 82 1024.9
20190418033204 55 283 2.0 5.0 0.00 0.00 0.00 82 1024.8
20190418032704 55 298 2.0 6.0 0.00 0.00 0.00 82 1024.8
20190418032204 55 289 2.0 6.0 0.00 0.01 0.00 81 1024.8
20190418031704 56 276 2.0 6.0 0.00 0.01 0.00 81 1024.7
20190418031205 56 270 2.0 6.0 0.00 0.01 0.00 81 1024.7
20190418030704 56 269 1.0 5.0 0.00 0.01 0.00 81 1024.7
20190418030204 56 266 2.0 6.0 0.00 0.01 0.00 80 1024.7
20190418025704 56 273 1.0 6.0 0.00 0.01 0.00 79 1024.7
20190418025204 56 277 2.0 6.0 0.00 0.01 0.00 78 1024.7
20190418024704 56 288 2.0 4.0 0.00 0.01 0.00 78 1024.8
20190418024204 56 286 1.0 5.0 0.00 0.01 0.00 80 1024.8
20190418023704 56 275 1.0 5.0 0.00 0.01 0.00 79 1024.9
20190418023204 57 269 1.0 7.0 0.00 0.01 0.00 76 1024.9
20190418022704 57 284 2.0 7.0 0.00 0.01 0.00 76 1025.0
20190418022204 57 291 2.0 7.0 0.00 0.01 0.00 74 1025.0
20190418021704 58 260 1.0 6.0 0.00 0.01 0.00 74 1025.0
20190418021204 58 270 2.0 7.0 0.00 0.01 0.00 74 1025.0
20190418020703 58 254 2.0 7.0 0.00 0.01 0.00 72 1025.0
20190418020204 58 247 1.0 7.0 0.00 0.01 0.00 73 1025.0
20190418015704 58 284 1.0 6.0 0.00 0.01 0.00 71 1025.0
20190418015203 59 275 2.0 6.0 0.00 0.01 0.00 71 1025.0
20190418014704 59 280 1.0 7.0 0.00 0.01 0.00 68 1024.9
20190418014204 59 280 1.0 7.0 0.00 0.01 0.00 69 1024.9
20190418013703 60 238 1.0 7.0 0.00 0.01 0.00 68 1024.9
20190418013204 60 311 1.0 5.0 0.00 0.01 0.00 67 1024.9
20190418012704 60 265 1.0 8.0 0.00 0.01 0.00 66 1024.9
20190418012204 61 258 2.0 9.0 0.00 0.01 0.00 65 1024.9
20190418011704 61 275 1.0 9.0 0.00 0.01 0.00 64 1024.9
20190418011203 62 155 2.0 5.0 0.00 0.01 0.00 63 1024.8
20190418010704 61 288 1.0 7.0 0.00 0.02 0.00 63 1024.8
20190418010204 61 292 1.0 8.0 0.00 0.04 0.00 65 1024.8
20190418005704 61 266 2.0 8.0 0.00 0.04 0.00 64 1024.8
20190418005204 61 272 2.0 8.0 0.00 0.05 0.00 64 1024.7
20190418004704 61 273 2.0 8.0 0.00 0.05 0.00 67 1024.8
20190418004204 61 285 2.0 8.0 0.00 0.05 0.00 65 1024.8
20190418003704 61 296 1.0 5.0 0.00 0.06 0.00 64 1024.8
20190418003203 61 180 1.0 5.0 0.00 0.06 0.00 66 1024.8